Twentynine Palms, CA

7:08 AM PDT on July 28, 2017 (GMT -0700)
Twentynine Palms Expeditionary Air Field

Weather History for KNXP - July, 2013

Change the Weather History Date:

Wednesday, July 10, 2013

  Actual Average Record
Temperature  
Mean Temperature 91 °F -  
Max Temperature 100 °F 99 °F 113 °F (2012)
Min Temperature 82 °F 74 °F 66 °F (2015)
Cooling Degree Days 26    
Growing Degree Days 41 (Base 50)    
Moisture  
Dew Point 49 °F    
Average Humidity 25    
Maximum Humidity 58    
Minimum Humidity 12    
Precipitation  
Precipitation 0.00 in - - ()
Sea Level Pressure  
Sea Level Pressure 29.85 in    
Wind  
Wind Speed 13 mph (SW)    
Max Wind Speed 21 mph    
Max Gust Speed 24 mph    
Visibility 10 miles    
Events Rain    
Averages and records for this station are not official NWS values.
T = Trace of Precipitation, MM = Missing Value Source: NWS Daily Summary

Daily Weather History Graph

Daily Weather History Graph

Search for Another Location

Airport or City:

Trip Planner

Search our weather history database for the weather conditions in past years. The results will help you decide how hot, cold, wet, or windy it might be!

Date:

Astronomy

Jul. 10, 2013 Rise Set
Actual Time 5:41 AM PDT 7:58 PM PDT
Civil Twilight 5:12 AM PDT 8:27 PM PDT
Nautical Twilight 4:36 AM PDT 9:03 PM PDT
Astronomical Twilight 3:58 AM PDT 9:41 PM PDT
Moon 7:58 AM PDT (7/10) 9:20 PM PDT (7/10)
Length of Visible Light 15h 15m
Length of Day
14h 17m
Waxing Crescent, 6% of the Moon is Illuminated
Jul 10
Waxing Crescent
Jul 15
First Quarter
Jul 22
Full
Jul 29
Last Quarter
Aug 6
New

Hourly Weather History & Observations

Time (PDT) Temp. Heat Index Dew Point Humidity Pressure Visibility Wind Dir Wind Speed Gust Speed Precip Events Conditions
12:56 AM 93.9 °F - 35.1 °F 13% 29.87 in 10.0 mi WNW 19.6 mph - N/A   Clear
1:56 AM 93.9 °F - 35.1 °F 13% 29.86 in 10.0 mi NW 12.7 mph - N/A   Clear
2:56 AM 93.0 °F - 35.1 °F 13% 29.86 in 10.0 mi North 10.4 mph - N/A   Clear
3:56 AM 93.0 °F - 34.0 °F 12% 29.88 in 10.0 mi NW 9.2 mph - N/A   Partly Cloudy
4:56 AM 91.0 °F - 34.0 °F 13% 29.87 in 10.0 mi Calm Calm - N/A   Partly Cloudy
5:56 AM 82.0 °F 84.1 °F 66.0 °F 58% 29.90 in 10.0 mi SW 20.7 mph - N/A   Clear
6:56 AM 82.0 °F 83.8 °F 64.9 °F 56% 29.90 in 10.0 mi SSW 16.1 mph 24.2 mph N/A   Scattered Clouds
7:56 AM 84.0 °F 85.4 °F 64.0 °F 51% 29.91 in 10.0 mi SW 16.1 mph - N/A   Mostly Cloudy
8:56 AM 90.0 °F 88.8 °F 57.9 °F 34% 29.91 in 10.0 mi SSW 5.8 mph - N/A   Mostly Cloudy
9:56 AM 91.0 °F 89.7 °F 57.0 °F 32% 29.90 in 10.0 mi SSE 5.8 mph - N/A   Mostly Cloudy
10:56 AM 93.0 °F 90.6 °F 53.1 °F 26% 29.90 in 10.0 mi ESE 8.1 mph - N/A   Mostly Cloudy
11:56 AM 93.9 °F 92.2 °F 55.9 °F 28% 29.88 in 10.0 mi ESE 10.4 mph - N/A   Mostly Cloudy
12:56 PM 97.0 °F 94.6 °F 54.0 °F 23% 29.88 in 10.0 mi East 10.4 mph - N/A   Mostly Cloudy
1:56 PM 98.1 °F - 52.0 °F 21% 29.86 in 10.0 mi ESE 12.7 mph - N/A   Mostly Cloudy
2:56 PM 100.0 °F - 52.0 °F 20% 29.84 in 10.0 mi ESE 10.4 mph - N/A   Mostly Cloudy
3:56 PM 100.0 °F - 50.0 °F 18% 29.81 in 10.0 mi East 8.1 mph - N/A   Mostly Cloudy
4:56 PM 100.0 °F - 48.9 °F 18% 29.79 in 10.0 mi Calm Calm - N/A   Clear
5:56 PM 98.1 °F 96.1 °F 54.0 °F 23% 29.78 in 10.0 mi SW 16.1 mph - N/A   Clear
6:56 PM 95.0 °F - 52.0 °F 23% 29.78 in 10.0 mi WSW 15.0 mph - N/A   Clear
7:56 PM 93.0 °F 90.6 °F 53.1 °F 26% 29.79 in 10.0 mi WSW 15.0 mph - 0.00 in Rain Light Rain
8:56 PM 93.9 °F - 48.0 °F 21% 29.80 in 10.0 mi West 10.4 mph - 0.00 in   Clear
9:56 PM 93.9 °F - 44.1 °F 18% 29.81 in 10.0 mi West 18.4 mph - N/A   Clear
10:56 PM 93.0 °F - 43.0 °F 18% 29.82 in 10.0 mi West 18.4 mph - N/A   Clear
11:56 PM 91.9 °F - 42.1 °F 18% 29.82 in 10.0 mi WNW 13.8 mph 21.9 mph N/A   Clear